Tracking 30995 objects as of 7-Jul-2025
HD Live streaming from Space Station
objects crossing your sky now

BREEZE-M DEB

Track BREEZE-M DEB now!
10-day predictions


NORAD ID: 37198
Int'l Code: 2008-011C
Perigee: 455.4 km
Apogee: 26,316.0 km
Inclination: 49.2 °
Period: 460.6 minutes
Semi major axis: 19756 km
RCS: 4.9345 m2 (large)
Launch date: March 14, 2008
Source: Commonwealth of Independent States (former USSR) (CIS)
Launch site: TYURATAM MISSILE AND SPACE COMPLEX (TTMTR)

Note: This is SATELLITE DEBRIS
Your satellite tracking list
SL-16 R/B
Track 1 satellite(s)




NASA's NSSDC Master Catalog

Two Line Element Set (TLE):
1 37198U 08011C   25187.46107292  .00000046  00000-0  42042-3 0  9997
2 37198  49.2087 305.4399 6544769 275.4627  18.6575  3.12631026167456
Source of the keplerian elements: AFSPC